Location: Beugnon
(47.6222°N, 3.7850°E)
Time: 13:10:06
(UTC+00:00)

Terra - Pass Details

Date: 09 April 2020
Orbit: 701 x 703 km, 98.2° (Epoch: 28 May)

Event Time Altitude Azimuth Distance (km) Brightness Sun altitude
Exits shadow 22:08:18 43° 296° (WNW) 985 2.8 -30.3°
Drops below altitude 10° 22:12:02 10° 336° (NNW) 2,183 5.3 -30.6°
Sets 22:14:23 0° 342° (NNW) 3,106 6.3 -30.8°
